ONEWEB-0305 (49093 NORAD) Tracking and Keplerian Element Data

This shows tracking and keplerian element data for the satellite.

Feedback or suggestion? Click here.




ElementValue
Catalog49093
NameONEWEB-0305
Epoch Orbit1131
Epoch Day300.91667824
Epoch Year2021
RAAN344.2854
Inclination87.5566
Eccentricity0.0023276
Argument of Perigee61.0157
Mean Anonmoly343.8679
Mean Motion14.35690826
Decay Rate-0.01280445
L11 49093U 21075U 21300.91667824 -.01280445 00000-0 -47544+0 0 9998
L22 49093 87.5566 344.2854 0023276 61.0157 343.8679 14.35690826 11314

Live tracking and technical data element details for ONEWEB-0305 (NORAD 49093). ONEWEB-0305 can be tracked NOW for your location showing map with azimuth and elevation plus other details from your city location.

Track the satellite on the map from your city or location and see movement details for azimuth, elevation, latitude, longitude, range, height, and movement on the map or in text.







IsCatalogInMostPopularTable: catalog: 49093, numindb: 11
Update: records affected: 1



GetName: 49093 ONEWEB-0305

Hit Count: updated at: Thu, 28 Oct 2021 11:06:06 GMT